TimeEDT,TemperatureF,Dew PointF,Humidity,Sea Level PressureIn,VisibilityMPH,Wind Direction,Wind SpeedMPH,Gust SpeedMPH,PrecipitationIn,Events,Conditions,WindDirDegrees,DateUTC
12:52 AM,66.9,66.0,97,29.97,10.0,Calm,Calm,-,N/A,,Clear,0,2012-08-09 04:52:00
1:38 AM,66.2,64.4,94,29.97,8.0,Calm,Calm,-,N/A,,Mostly Cloudy,0,2012-08-09 05:38:00
2:52 AM,66.9,64.9,93,29.95,7.0,Calm,Calm,-,N/A,,Mostly Cloudy,0,2012-08-09 06:52:00
3:19 AM,66.2,64.4,94,29.96,8.0,Calm,Calm,-,N/A,,Scattered Clouds,0,2012-08-09 07:19:00
3:28 AM,66.2,64.4,94,29.96,8.0,Calm,Calm,-,N/A,,Mostly Cloudy,0,2012-08-09 07:28:00
3:38 AM,66.2,64.4,94,29.96,7.0,Calm,Calm,-,N/A,,Scattered Clouds,0,2012-08-09 07:38:00
3:52 AM,66.0,64.9,96,29.95,8.0,Calm,Calm,-,N/A,,Mostly Cloudy,0,2012-08-09 07:52:00
4:52 AM,66.9,64.9,93,29.95,8.0,Calm,Calm,-,N/A,,Overcast,0,2012-08-09 08:52:00
5:52 AM,66.9,66.0,97,29.95,9.0,Calm,Calm,-,N/A,,Overcast,0,2012-08-09 09:52:00
6:08 AM,68.0,66.2,94,29.96,8.0,Calm,Calm,-,N/A,,Overcast,0,2012-08-09 10:08:00
6:52 AM,69.1,66.0,90,29.97,8.0,Calm,Calm,-,N/A,,Overcast,0,2012-08-09 10:52:00
7:04 AM,69.8,66.2,88,29.98,8.0,Calm,Calm,-,N/A,,Overcast,0,2012-08-09 11:04:00
7:52 AM,72.0,68.0,87,29.97,8.0,Calm,Calm,-,N/A,,Overcast,0,2012-08-09 11:52:00
8:52 AM,73.9,68.0,82,29.97,9.0,Calm,Calm,-,N/A,,Overcast,0,2012-08-09 12:52:00
9:39 AM,77.0,68.0,74,29.97,10.0,South,4.6,-,N/A,,Scattered Clouds,180,2012-08-09 13:39:00
9:52 AM,79.0,68.0,69,29.96,10.0,Calm,Calm,-,N/A,,Clear,0,2012-08-09 13:52:00
10:52 AM,82.0,69.1,65,29.95,10.0,SSE,5.8,-,N/A,,Partly Cloudy,150,2012-08-09 14:52:00
11:52 AM,84.0,68.0,58,29.94,10.0,Calm,Calm,-,N/A,,Clear,0,2012-08-09 15:52:00
12:52 PM,87.1,66.0,49,29.92,10.0,South,12.7,-,N/A,,Clear,190,2012-08-09 16:52:00
1:52 PM,84.9,66.0,53,29.91,10.0,SSE,8.1,-,N/A,,Clear,150,2012-08-09 17:52:00
2:52 PM,84.9,64.9,51,29.90,10.0,SE,4.6,-,N/A,,Clear,140,2012-08-09 18:52:00
3:52 PM,86.0,64.9,49,29.89,10.0,SSW,9.2,-,N/A,,Mostly Cloudy,210,2012-08-09 19:52:00
4:52 PM,84.9,66.0,53,29.88,10.0,South,5.8,-,N/A,,Partly Cloudy,180,2012-08-09 20:52:00
5:52 PM,84.9,66.0,53,29.87,10.0,South,8.1,-,N/A,,Clear,170,2012-08-09 21:52:00
6:52 PM,81.0,66.9,62,29.88,10.0,South,6.9,-,N/A,,Partly Cloudy,180,2012-08-09 22:52:00
7:52 PM,79.0,68.0,69,29.90,10.0,South,4.6,-,N/A,,Partly Cloudy,190,2012-08-09 23:52:00
8:52 PM,77.0,69.1,76,29.90,10.0,South,4.6,-,N/A,,Clear,170,2012-08-10 00:52:00
9:52 PM,75.9,70.0,82,29.91,10.0,South,6.9,-,N/A,,Clear,180,2012-08-10 01:52:00
10:52 PM,75.9,70.0,82,29.92,10.0,South,4.6,-,N/A,,Clear,170,2012-08-10 02:52:00
11:52 PM,75.0,70.0,84,29.91,10.0,South,6.9,-,N/A,,Clear,170,2012-08-10 03:52:00